カタログに戻る

CYGFM02

運用中科学VLEO
NORAD 41886·PAYLOAD·🇺🇸 United States

打ち上げ Dec 15, 2016 から Cape Canaveral Space Force Station

Loading…

次のパス (今後24時間)

TLE

最新Source: Space-Track

元期: Sep 14, 2026, 13:25 UTC

1 41886U 16078C   26257.55965351  .00041866  00000-0  31410-3 0  9997
2 41886  34.9405 341.0893 0004256 354.8276   5.2408 15.71481807543209

AllMySatでCYGFM02をリアルタイム追跡

Download on the App Store